Waarnemingen

Advertentie
Mijn weer
Lanveoc Poulmic, Frankrijk (7109): temperatuur & dauwpunt: 17.01.2018 02:00:00 - 23.01.2018 02:00:00 (CET)Lanveoc Poulmic, Frankrijk (7109): windsnelheid & windstoten: 17.01.2018 02:00:00 - 23.01.2018 02:00:00 (CET)Lanveoc Poulmic, Frankrijk (7109): windrichting: 17.01.2018 02:00:00 - 23.01.2018 02:00:00 (CET)Lanveoc Poulmic, Frankrijk (7109): luchtdruk: 17.01.2018 02:00:00 - 23.01.2018 02:00:00 (CET)Lanveoc Poulmic, Frankrijk (7109): zicht: 17.01.2018 02:00:00 - 23.01.2018 02:00:00 (CET)Lanveoc Poulmic, Frankrijk (7109): neerslag: 17.01.2018 02:00:00 - 23.01.2018 02:00:00 (CET)
Datum & Tijd tt [°C] td [°C] ff [km/u] ff [kn] fx [km/u] fx [kn] dd ppp [hPa] vv [km] rr [mm]
23.01.2018 02:00:00 10,4 10,1 21 11 29 16 Z 1022,1 0,8 0,6
23.01.2018 01:00:00 9,9 9,4 18 10 29 16 Z 1022,9 12 -
23.01.2018 00:00:00 9,7 9,6 16 9 26 14 Z 1023,0 8 0,0
22.01.2018 23:00:00 9,1 8,8 13 7 21 11 ZZW 1023,4 6 0,0
22.01.2018 22:00:00 9,2 8,7 11 6 18 10 ZZW 1023,5 7 -
22.01.2018 21:00:00 9,3 9,0 11 6 18 10 ZW 1024,0 6 0,0
22.01.2018 20:00:00 9,1 8,6 9 5 15 8 ZW 1023,8 6 0,0
22.01.2018 19:00:00 9,1 8,3 9 5 15 8 ZW 1023,8 5 -
22.01.2018 18:00:00 10,1 8,4 11 6 24 13 WZW 1023,4 10 0,0
22.01.2018 17:00:00 11,2 8,6 15 8 29 16 W 1022,9 16 0,0
22.01.2018 16:00:00 11,4 8,8 18 10 31 17 WNW 1022,3 16 -
22.01.2018 15:00:00 11,1 8,0 21 11 37 20 WNW 1021,8 17 0,0
22.01.2018 14:00:00 11,4 7,5 21 11 35 19 NW 1021,2 10 0,0
22.01.2018 13:00:00 11,0 8,4 22 12 41 22 NW 1021,0 18 -
22.01.2018 12:00:00 11,1 8,7 26 14 44 24 NW 1020,5 16 0,0
22.01.2018 11:00:00 10,7 8,6 26 14 46 25 NW 1019,2 10 0,0
22.01.2018 10:00:00 10,1 7,9 39 21 67 36 NW 1018,0 16 -
22.01.2018 09:00:00 10,5 8,4 41 22 80 43 NW 1015,6 10 0,0
22.01.2018 08:00:00 11,7 9,9 46 25 80 43 W 1012,7 9 0,0
22.01.2018 07:00:00 11,9 11,3 41 22 70 38 WZW 1012,6 12 -
22.01.2018 06:00:00 12,0 11,8 41 22 61 33 WZW 1013,4 2,7 0,2
22.01.2018 05:00:00 11,9 11,6 41 22 63 34 WZW 1014,2 3,7 0,0
22.01.2018 04:00:00 11,9 11,6 42 23 63 34 WZW 1014,8 7 -
22.01.2018 03:00:00 12,1 11,9 41 22 67 36 WZW 1015,2 3,5 0,4
22.01.2018 02:00:00 11,9 11,7 37 20 57 31 WZW 1015,8 2,0 0,4
22.01.2018 01:00:00 11,8 11,6 35 19 55 30 WZW 1016,5 0,5 -
22.01.2018 00:00:00 11,8 11,6 34 18 54 29 WZW 1016,8 1,3 0,2
21.01.2018 23:00:00 11,8 11,6 35 19 61 33 W 1017,3 2,4 0,2
21.01.2018 22:00:00 12,0 11,8 35 19 59 32 W 1017,5 1,2 -
21.01.2018 21:00:00 11,8 11,6 34 18 65 35 W 1017,3 3,2 0,0
21.01.2018 20:00:00 11,8 11,6 35 19 55 30 W 1017,5 3,2 0,0
21.01.2018 19:00:00 11,7 11,4 35 19 57 31 W 1017,6 2,4 -
21.01.2018 18:00:00 11,6 11,3 34 18 59 32 W 1017,6 6 0,0
21.01.2018 17:00:00 11,5 11,0 31 17 52 28 WZW 1017,7 2,0 0,0
21.01.2018 16:00:00 11,5 10,6 31 17 54 29 W 1018,0 8 -
21.01.2018 15:00:00 11,6 11,0 31 17 52 28 W 1018,1 6 0,0
21.01.2018 14:00:00 11,7 10,8 34 18 57 31 W 1018,4 19 0,0
21.01.2018 13:00:00 11,7 11,4 34 18 57 31 W 1018,8 13 -
21.01.2018 12:00:00 11,6 11,4 31 17 55 30 W 1019,2 2,3 0,2
21.01.2018 11:00:00 11,5 11,3 34 18 52 28 W 1018,9 2,0 0,0
21.01.2018 10:00:00 11,4 11,2 26 14 44 24 W 1018,9 1,7 -
21.01.2018 09:00:00 11,2 11,0 24 13 42 23 W 1018,8 2,5 0,0
21.01.2018 08:00:00 11,0 10,8 29 16 46 25 WNW 1018,4 10 0,0
21.01.2018 07:00:00 11,2 11,0 28 15 50 27 W 1018,1 2,8 -
21.01.2018 06:00:00 11,3 11,1 34 18 54 29 WNW 1017,7 1,3 0,0
21.01.2018 05:00:00 11,5 11,3 31 17 48 26 WNW 1017,3 1,5 0,2
21.01.2018 04:00:00 11,5 11,3 28 15 42 23 WNW 1017,2 0,5 -
21.01.2018 03:00:00 11,4 11,2 28 15 42 23 WNW 1016,9 1,9 0,4
21.01.2018 02:00:00 11,5 11,3 26 14 39 21 WNW 1016,5 0,4 0,4
21.01.2018 01:00:00 11,4 11,2 26 14 39 21 WNW 1016,2 1,5 -
21.01.2018 00:00:00 11,4 11,2 24 13 48 26 WNW 1015,7 3,4 0,4
20.01.2018 23:00:00 11,4 10,8 26 14 52 28 WNW 1015,2 3,1 0,0
20.01.2018 22:00:00 11,3 10,7 29 16 57 31 WNW 1014,5 2,5 -
20.01.2018 21:00:00 11,3 10,7 35 19 55 30 WNW 1014,0 10 0,0
20.01.2018 20:00:00 11,3 10,8 34 18 59 32 WNW 1013,0 10 0,2
20.01.2018 19:00:00 11,5 11,2 35 19 59 32 WNW 1012,4 2,6 -
20.01.2018 18:00:00 11,6 11,1 34 18 61 33 WNW 1011,4 6 0,0
20.01.2018 17:00:00 11,5 11,0 39 21 65 35 WNW 1010,3 3,7 0,0
20.01.2018 16:00:00 11,6 11,3 41 22 65 35 W 1009,4 4,8 -
20.01.2018 15:00:00 11,8 11,5 42 23 72 39 W 1008,7 3,4 0,0
20.01.2018 14:00:00 11,8 11,5 41 22 65 35 W 1008,3 5 0,6
20.01.2018 13:00:00 11,7 11,4 37 20 61 33 W 1008,6 1,9 -
20.01.2018 12:00:00 11,8 11,5 37 20 70 38 W 1008,7 4,6 0,2
20.01.2018 11:00:00 11,8 11,5 41 22 65 35 W 1007,7 6 0,2
20.01.2018 10:00:00 11,8 11,3 46 25 74 40 WNW 1006,9 2,3 -
20.01.2018 09:00:00 11,9 11,4 48 26 74 40 W 1005,9 5 1,0
20.01.2018 08:00:00 12,0 11,5 48 26 80 43 W 1005,2 6 0,4
20.01.2018 07:00:00 12,0 11,5 48 26 81 44 W 1004,9 8 -
20.01.2018 06:00:00 11,9 11,4 50 27 87 47 W 1005,2 4,6 1,0
20.01.2018 05:00:00 11,6 11,1 59 32 104 56 W 1005,6 6 4,0
20.01.2018 04:00:00 10,1 9,8 41 22 72 39 ZW 1006,9 2,0 -
20.01.2018 03:00:00 9,0 8,5 29 16 50 27 ZZW 1009,6 4,9 4,0
20.01.2018 02:00:00 8,2 7,4 22 12 42 23 ZW 1013,0 4,6 3,0
20.01.2018 01:00:00 8,4 7,5 18 10 31 17 WZW 1014,9 9 -
20.01.2018 00:00:00 8,4 7,3 13 7 31 17 WZW 1016,3 10 0,4
19.01.2018 23:00:00 8,7 6,7 18 10 34 18 W 1016,6 10 0,0
19.01.2018 22:00:00 8,8 6,2 21 11 44 24 W 1017,3 18 -
19.01.2018 21:00:00 8,8 5,2 26 14 41 22 W 1017,6 10 0,0
19.01.2018 20:00:00 8,5 4,5 24 13 37 20 W 1017,9 10 0,0
19.01.2018 19:00:00 7,7 4,1 16 9 28 15 W 1018,2 18 -
19.01.2018 18:00:00 6,8 4,5 18 10 35 19 W 1018,1 10 0,2
19.01.2018 17:00:00 6,9 4,0 22 12 54 29 W 1018,2 10 0,0
19.01.2018 16:00:00 8,4 3,0 28 15 44 24 WNW 1018,0 50 -
19.01.2018 15:00:00 8,4 3,8 31 17 55 30 WNW 1017,7 10 0,0
19.01.2018 14:00:00 7,7 3,9 22 12 50 27 W 1017,7 40 0,0
19.01.2018 13:00:00 8,5 4,1 22 12 35 19 WNW 1017,7 19 -
19.01.2018 12:00:00 6,3 3,1 22 12 44 24 WNW 1018,2 10 0,4
19.01.2018 11:00:00 6,3 3,3 29 16 48 26 NW 1017,7 10 0,2
19.01.2018 10:00:00 5,8 3,1 13 7 44 24 NW 1017,1 10 -
19.01.2018 09:00:00 6,7 3,5 22 12 31 17 WNW 1016,8 10 0,0
19.01.2018 08:00:00 6,6 2,7 21 11 35 19 W 1016,2 10 0,0
19.01.2018 07:00:00 6,3 3,3 21 11 39 21 WNW 1015,7 10 -
19.01.2018 06:00:00 5,9 4,5 15 8 42 23 W 1015,8 10 0,4
19.01.2018 05:00:00 6,9 5,2 22 12 44 24 W 1015,6 10 1,0
19.01.2018 04:00:00 8,1 3,5 16 9 28 15 W 1015,3 10 -
19.01.2018 03:00:00 7,4 2,9 21 11 28 15 W 1015,6 10 0,0
19.01.2018 02:00:00 6,7 3,8 18 10 44 24 W 1015,9 10 0,0
19.01.2018 01:00:00 7,5 3,7 21 11 39 21 WNW 1015,8 10 -
19.01.2018 00:00:00 7,2 3,6 18 10 42 23 WNW 1015,8 10 0,0
18.01.2018 23:00:00 7,4 2,9 28 15 50 27 WNW 1015,6 10 0,0
18.01.2018 22:00:00 7,5 4,4 26 14 41 22 WNW 1015,4 10 -
18.01.2018 21:00:00 7,8 4,7 31 17 50 27 WNW 1015,0 10 0,0
18.01.2018 20:00:00 7,9 4,3 29 16 59 32 NW 1014,9 10 0,0
18.01.2018 19:00:00 9,3 5,3 26 14 55 30 WNW 1014,1 10 -
18.01.2018 18:00:00 9,5 5,9 28 15 54 29 WNW 1013,6 10 0,0
18.01.2018 17:00:00 9,9 7,0 26 14 61 33 WNW 1012,9 10 0,0
18.01.2018 16:00:00 11,6 8,1 28 15 44 24 W 1012,1 10 -
18.01.2018 15:00:00 11,3 8,5 29 16 48 26 WNW 1012,2 10 0,0
18.01.2018 14:00:00 11,8 9,0 28 15 44 24 W 1011,7 10 0,0
18.01.2018 13:00:00 11,1 9,4 26 14 52 28 WNW 1012,1 10 -
18.01.2018 12:00:00 11,6 10,8 31 17 59 32 W 1012,1 7 0,0
18.01.2018 11:00:00 11,7 11,2 41 22 59 32 W 1011,6 6 0,0
18.01.2018 10:00:00 11,6 11,1 35 19 65 35 W 1011,5 7 -
18.01.2018 09:00:00 11,6 11,3 39 21 78 42 W 1011,0 4,4 0,2
18.01.2018 08:00:00 11,5 11,0 35 19 65 35 W 1010,9 7 0,2
18.01.2018 07:00:00 11,3 11,0 39 21 70 38 W 1010,7 4,9 -
18.01.2018 06:00:00 11,2 10,7 42 23 74 40 W 1011,1 5 0,4
18.01.2018 05:00:00 11,1 10,3 44 24 68 37 W 1011,2 5 0,2
18.01.2018 04:00:00 10,8 10,0 44 24 70 38 WZW 1011,8 7 -
18.01.2018 03:00:00 10,7 9,8 44 24 70 38 WZW 1012,4 8 0,0
18.01.2018 02:00:00 10,5 9,6 44 24 70 38 WZW 1013,1 6 0,2
18.01.2018 01:00:00 10,4 9,3 46 25 70 38 WZW 1014,1 10 -
18.01.2018 00:00:00 10,0 9,2 42 23 65 35 WZW 1015,1 6 0,0
17.01.2018 23:00:00 9,9 8,3 35 19 59 32 WZW 1015,7 10 0,0
17.01.2018 22:00:00 9,4 8,0 44 24 70 38 WZW 1016,7 9 -
17.01.2018 21:00:00 9,8 6,7 34 18 57 31 W 1017,4 10 0,0
17.01.2018 20:00:00 9,8 5,6 31 17 48 26 W 1018,2 10 0,0
17.01.2018 19:00:00 8,5 6,1 28 15 46 25 W 1018,7 10 -
17.01.2018 18:00:00 8,5 4,9 24 13 44 24 W 1019,3 10 0,0
17.01.2018 17:00:00 8,2 5,7 28 15 54 29 W 1020,0 10 0,0
17.01.2018 16:00:00 9,0 5,9 29 16 54 29 W 1020,1 10 -
17.01.2018 15:00:00 8,7 5,3 24 13 44 24 W 1020,4 10 0,0
17.01.2018 14:00:00 7,8 5,8 24 13 61 33 WNW 1020,8 10 0,8
17.01.2018 13:00:00 8,6 4,8 24 13 55 30 NW 1020,9 10 -
17.01.2018 12:00:00 9,2 4,0 31 17 55 30 WNW 1021,1 10 0,0
17.01.2018 11:00:00 7,9 4,1 21 11 67 36 WNW 1020,4 10 0,2
17.01.2018 10:00:00 6,8 4,3 21 11 37 20 WNW 1019,6 10 -
17.01.2018 09:00:00 5,9 2,9 28 15 50 27 NW 1019,0 10 0,0
17.01.2018 08:00:00 5,4 3,1 41 22 83 45 NW 1018,2 10 0,6
17.01.2018 07:00:00 6,7 3,3 31 17 63 34 NW 1016,9 10 -
17.01.2018 06:00:00 6,3 3,1 37 20 74 40 NW 1015,8 10 0,4
17.01.2018 05:00:00 6,9 2,8 44 24 87 47 WNW 1014,6 10 0,0
17.01.2018 04:00:00 7,1 2,2 42 23 76 41 WNW 1013,8 10 -
17.01.2018 03:00:00 6,4 3,5 35 19 76 41 NW 1013,0 10 0,2
17.01.2018 02:00:00 7,0 2,9 41 22 94 51 WNW 1012,0 10 0,0

tt = temperatuur
td = dauwpunt
ff = windsnelheid
fx = windstoten
dd = windrichting
ppp = luchtdruk
vv = zicht
rr = neerslag

Weerstations in de omgeving